Location: Las Vegas
(36.1750°N, 115.1360°W)
Time: 11:21:08
(UTC-07:00)

Tiangong 2 - Visible Passes

Search period start: 24 April 2019 00:00
Search period end: 04 May 2019 00:00
Orbit: 378 x 390 km, 42.8° (Epoch: 24 April)

Date Brightness Start Highest point End Pass type
(mag) Time Alt. Az. Time Alt. Az. Time Alt. Az.
29 Apr 3.8 05:06:58 10° SSE 05:08:21 12° SE 05:09:45 10° ESE visible
01 May 2.9 04:43:12 13° SSW 04:45:12 23° SE 04:47:47 10° E visible
02 May 3.9 03:46:10 11° SE 03:46:10 11° SE 03:46:50 10° ESE visible
03 May 1.7 04:21:15 34° S 04:22:04 44° SSE 04:25:06 10° ENE visible
